Terug naar catalogus

THOR ABLESTAR DEB

ActiefPO
NORAD 38521·DEBRIS·🇺🇸 United States

Gelanceerd Sep 28, 1963 vanaf Vandenberg Space Force Base

Loading…

Volgende Passages (komende 24 uur)

TLE

VersSource: Space-Track

Epoch: Sep 13, 2026, 12:56 UTC

1 38521U 63038Q   26256.53943558  .00000079  00000-0  11646-3 0  9999
2 38521  89.9682 332.7780 0042845  92.7579 333.6000 13.45441764647387

Volg THOR ABLESTAR DEB in realtime met AllMySat

Download on the App Store